STARLINK-1280, 45388

Orbit data source: Space-Track

STARLINK-1280, 45388 is a payload satellite owned by SpaceX/Seattle (US) in LEO that was launched on Wed, 18 Mar 2020 UTC via an FALCON 9 launch vehicle from the Air Force Eastern Test Range (AFETR). Payloads include a variety of satellites, spacecraft, and rockets equipped with specific instruments for various scientific and technological missions. These include communications satellites like Starlink; space stations such as the ISS; scientific satellites like the Hubble; Earth observation satellites from companies like Planet Labs, Umbra, and HawkEye 360; GPS; miniature CubeSats for education and research; and military/defense satellites.

Loading next visibility...
STARLINK-1280 details
Identifier
45388, 2020-019AE
Orbit
LEO
Last TLE update7 hours ago
Origin
Flag of USSpaceX/Seattle (US)
ManufacturerSpaceX/Seattle
MissionOperational Commercial Communications
Bus & MotorSTARLINK, Unknown motor
Mass260 kg wet, ~248 kg dry
Launch date (UTC)
2020-03-18 (5 years ago)
Launch vehicle
FALCON 9
Launch site
Air Force Eastern Test Range (AFETR)
Object type
Payload
Rocket body
Debris
Shape & HBRBox + 1 Pan, 8.86 m
Radar Cross Section13.562 m², Large (>1 m²)

Expand to show TLE details & history

TLE from 7 hours ago
0 STARLINK-1280
1 45388U 20019AE  25025.50007996  .00000218  00000-0  33535-4 0  9994
2 45388  53.0531 199.0503 0001442  87.7303 272.3851 15.06388767268198
Epoch: 2025-01-25T12:00Z
Definitive object data (Epoch: 2025-01-25T12:00:06.908Z)
Latitude-0.00003°
Longitude-106.02651°
Altitude548.084 km
Speed7.589 km/s
True Right ascension13h 16m 12s
True Declination0° 00' 00"
Sunlit
Object was in daylight at TLE epoch
Visualization TLE readout
Latitude-37.12939°
Longitude107.08535°
Altitude559.993 km
Speed7.581 km/s
Apparent Right ascension05h 54m 44s
Apparent Declination-45° 34' 25"
Sunlit
Object is in daylight
Visualization observer readout
Local Sidereal Time20:43:52
Azimuth114.582° SE
Elevation-58.809°
Doppler factor1
Orbital elements
Apogee altitude548.516 km
Perigee altitude546.518 km
Semi-major axis6,925.654 km
Eccentricity0.0001442
Inclination53.0531°
RAAN199.0503°
Arg. of periapsis87.7303°
True anomaly272.36859°
Mean anomaly272.3851°
Eccentric anomaly272.37685°
Mean motion3.76575 °/min
BSTAR0.000033535
Orbital period95.6 mins
Loading maneuver chart data...
Loading historical data...
Loading historical data...
Loading historical data...
Loading historical data...
Loading historical data...
Loading historical data...
Loading historical data...

STARLINK-1280 Visibility forecast

Observer location: undefined°, undefined

Span
Click to sort rows by Start time (UTC) header in descending order
Start Az.
Max El. time (UTC)
Max El. Az.
Max El.
End time (UTC)
End Az.
7 mins2025-01-25 20:25:56.756Z321.654° NNW2025-01-25 20:29:56.756Z47.077° ENE33.343°2025-01-25 20:32:56.756Z101.995° ESE
5 mins2025-01-25 22:06:56.756Z274.29° WNW2025-01-25 22:08:56.756Z230.817° WSW25.406°2025-01-25 22:11:56.756Z174.289° S
6 mins2025-01-26 13:38:56.756Z207.715° SW2025-01-26 13:41:56.756Z131.331° SE38.594°2025-01-26 13:44:56.756Z62.249° ENE
5 mins2025-01-26 15:19:56.756Z294.722° NW2025-01-26 15:21:56.756Z342.73° N24.753°2025-01-26 15:24:56.756Z31.893° NE
|